This is the latest recevied weather packets stored in our database for station/object N0QV. If no packets are shown the sender has not sent any weather packets the latest 10 day(s).
| Time | Temp. | Humidity | Pressure | Rain* | Wind** | Luminosity | Snow |
|---|---|---|---|---|---|---|---|
| 1778080241 | 5° C | 57% | 1018 hPa | 0 mm | - | 146 W/m² | - |
| 1778079937 | 5° C | 55% | 1018.1 hPa | 0 mm | - | 145 W/m² | - |
| 1778079634 | 5° C | 56% | 1018 hPa | 0 mm | - | 141 W/m² | - |
| 1778079331 | 5° C | 56% | 1018.2 hPa | 0 mm | - | 132 W/m² | - |
| 1778079029 | 5° C | 56% | 1018.1 hPa | 0 mm | - | 134 W/m² | - |
| 1778078725 | 5° C | 56% | 1018 hPa | 0 mm | - | 155 W/m² | - |
| 1778078423 | 4.44° C | 57% | 1017.8 hPa | 0 mm | - | 138 W/m² | - |
| 1778078120 | 4.44° C | 62% | 1018.1 hPa | 0 mm | - | 129 W/m² | - |
| 1778077819 | 4.44° C | 62% | 1018 hPa | 0 mm | - | 129 W/m² | - |
| 1778077516 | 4.44° C | 63% | 1017.9 hPa | 0 mm | - | 129 W/m² | - |
| 1778077214 | 4.44° C | 62% | 1017.9 hPa | 0 mm | - | 106 W/m² | - |
| 1778076912 | 3.89° C | 63% | 1018 hPa | 0 mm | - | 98 W/m² | - |
| 1778076610 | 3.89° C | 62% | 1018 hPa | 0 mm | - | 93 W/m² | - |
| 1778076307 | 3.89° C | 63% | 1018 hPa | 0 mm | - | 98 W/m² | - |
| 1778076004 | 3.89° C | 63% | 1017.9 hPa | 0 mm | - | 102 W/m² | - |
| 1778075700 | 3.89° C | 63% | 1017.8 hPa | 0 mm | - | 100 W/m² | - |
| 1778075396 | 3.33° C | 65% | 1017.9 hPa | 0 mm | - | 94 W/m² | - |
| 1778075093 | 3.33° C | 68% | 1017.8 hPa | 0 mm | - | 92 W/m² | - |
| 1778074789 | 2.78° C | 65% | 1017.8 hPa | 0 mm | - | 86 W/m² | - |
| 1778074486 | 2.78° C | 65% | 1017.7 hPa | 0 mm | - | 74 W/m² | - |
| 1778074183 | 2.78° C | 65% | 1017.8 hPa | 0 mm | - | 72 W/m² | - |
| 1778073880 | 2.78° C | 64% | 1017.8 hPa | 0 mm | - | 72 W/m² | - |
| 1778073578 | 2.78° C | 65% | 1017.6 hPa | 0 mm | - | 72 W/m² | - |
| 1778073274 | 2.78° C | 65% | 1017.6 hPa | 0 mm | - | 65 W/m² | - |
| 1778072971 | 2.22° C | 66% | 1017.4 hPa | 0 mm | - | 48 W/m² | - |
* Rain latest hour (hover to see other rain measurements)
** Current wind speed in m/s (hover to see current wind gust speed)